#timestamp,LO_Frequency,Hit 
1500606015.5,286044420.6,N
1500606035.4,286044423.4,N
1500606055.2,286044422.9,N
1500606075.0,286044423.3,N
1500606075.9,286044423.3,N
1500606095.8,286044423.1,N
1500606115.6,286044423.1,N
1500606135.5,286044422.9,N
1500606155.3,286044422.1,N
1500606175.1,286044422.9,N
1500606195.9,286044422.7,N
1500606215.7,286044423.1,N
1500606235.5,286044423.0,N
1500606255.4,286044422.7,N
1500606275.2,286044423.3,N
1500606295.1,286044422.9,N
1500606296.0,286044422.9,N
1500606315.8,286044423.5,N
1500606335.6,286044422.7,N
1500606355.5,286044423.1,N
1500606375.3,286044420.9,N
1500606395.2,286044422.7,N
1500606415.9,286044422.2,N
1500606435.7,286044422.2,N
1500606455.6,286044422.1,N
1500606475.4,286044420.8,N
1500606495.3,286044422.8,N
1500606515.1,286044423.2,N
1500606516.0,286044423.2,N
1500606535.8,286044420.6,N
1500606555.7,286044422.5,N
1500606575.5,286044422.0,N
1500606595.3,286044422.5,N
1500606615.2,286044422.6,N
1500606635.0,286044423.2,N
1500606635.9,286044423.2,N
1500606655.8,286044423.0,N
1500606675.6,286044423.2,N
1500606695.4,286044422.3,N
1500606715.3,286044423.2,N
1500606735.1,286044423.2,N
1500606755.9,286044422.2,N
1500606775.7,286044420.5,N
1500606795.5,286044422.7,N
1500606815.4,286044423.2,N
1500606835.2,286044422.8,N
1500606855.1,286044422.7,N
1500606856.0,286044422.7,N
1500606875.8,286044422.6,N
1500606895.6,286044422.7,N
1500606915.5,286044422.4,N
1500606935.3,286044422.9,N
1500606955.2,286044422.8,N
1500606975.9,286044420.5,N
1500606995.7,286044420.8,N
1500607015.6,286044423.1,N
1500607035.4,286044422.5,N
1500607055.3,286044422.1,N
1500607075.1,286044424.3,N
1500607076.0,286044424.3,N
1500607095.8,286044424.8,N
1500607115.7,286044424.5,N
1500607135.5,286044424.8,N
1500607155.3,286044422.3,N
1500607175.2,286044422.6,N
1500607195.0,286044423.9,N
1500607195.9,286044423.9,N
1500607215.8,286044422.2,N
1500607235.6,286044422.4,N
1500607255.4,286044422.0,N
1500607275.3,286044422.4,N
1500607295.1,286044425.0,N
1500607315.9,286044424.7,N
1500607335.7,286044422.4,N
1500607355.5,286044424.7,N
1500607375.4,286044422.0,N
1500607395.2,286044422.1,N
1500607415.0,286044425.1,N
1500607415.9,286044425.1,N
1500607435.8,286044424.5,N
1500607455.6,286044422.8,N
1500607475.5,286044422.6,N
1500607495.3,286044422.4,N
1500607515.1,286044425.0,N
1500607535.9,286044422.4,N
1500607555.7,286044425.1,N
1500607575.5,286044424.9,N
1500607595.4,286044424.7,N
1500607615.2,286044424.4,N
1500607635.1,286044422.1,N
1500607636.0,286044422.1,N
1500607655.8,286044424.3,N
1500607675.6,286044424.7,N
1500607695.5,286044424.8,N
1500607715.3,286044424.4,N
1500607735.1,286044425.1,N
1500607755.9,286044425.0,N
1500607775.7,286044424.6,N
1500607795.6,286044423.9,N
1500607815.4,286044424.2,N
1500607835.2,286044423.7,N
1500607855.1,286044426.6,N
1500607856.0,286044426.6,N
1500607875.8,286044424.1,N
1500607895.7,286044424.6,N
1500607915.5,286044424.5,N
1500607935.3,286044424.4,N
1500607955.2,286044424.5,N
1500607975.9,286044423.8,N
1500607995.7,286044423.8,N
1500608015.6,286044424.2,N
1500608035.4,286044426.6,N
1500608055.3,286044426.6,N
1500608075.1,286044425.7,N
1500608076.0,286044425.7,N
1500608095.8,286044426.1,N
1500608115.7,286044426.4,N
1500608135.5,286044426.0,N
1500608155.3,286044423.6,N
1500608175.2,286044426.4,N
1500608195.0,286044423.6,N
1500608195.9,286044423.6,N
1500608215.8,286044425.5,N
1500608235.6,286044426.4,N
1500608255.4,286044425.5,N
1500608275.3,286044426.7,N
1500608295.1,286044423.8,N
1500608315.8,286044424.1,N
1500608335.7,286044424.0,N
1500608355.5,286044424.5,N
1500608375.4,286044424.9,N
1500608395.2,286044423.9,N
1500608415.0,286044424.6,N
1500608415.9,286044424.6,N
1500608435.8,286044424.5,N
1500608455.6,286044422.5,N
1500608475.5,286044423.3,N
1500608495.3,286044422.6,N
1500608515.1,286044422.3,N
1500608535.9,286044423.0,N
1500608555.7,286044423.0,N
1500608575.5,286044420.5,N
1500608595.4,286044421.6,N
1500608615.2,286044421.8,N
1500608635.1,286044421.8,N
1500608636.0,286044421.8,N
1500608655.8,286044418.9,N
1500608675.6,286044419.4,N
1500608695.5,286044419.9,N
1500608715.3,286044419.8,N
1500608735.1,286044419.9,N
1500608755.9,286044417.2,N
1500608775.7,286044417.7,N
1500608795.6,286044417.5,N
1500608815.4,286044418.0,N
1500608835.2,286044418.4,N
1500608855.1,286044418.2,N
1500608856.0,286044418.2,N
1500608875.8,286044418.6,N
1500608895.6,286044415.6,N
1500608915.5,286044416.0,N
1500608935.3,286044416.8,N
1500608955.2,286044414.0,N
1500608975.9,286044416.8,N
1500608995.7,286044416.6,N
1500609015.6,286044416.2,N
1500609035.4,286044416.6,N
1500609055.3,286044417.1,N
1500609075.1,286044416.4,N
1500609076.0,286044416.4,N
1500609095.8,286044414.7,N
1500609115.7,286044414.7,N
1500609135.5,286044414.5,N
1500609155.3,286044414.3,N
1500609175.2,286044414.7,N
1500609195.0,286044415.4,N
1500609195.9,286044415.4,N
1500609215.8,286044414.4,N
1500609235.6,286044414.8,N
1500609255.4,286044415.5,N
1500609275.3,286044415.4,N
1500609295.1,286044415.5,N
1500609315.8,286044415.1,N
1500609335.7,286044414.6,N
1500609355.5,286044414.7,N
1500609375.4,286044414.7,N
1500609395.2,286044414.6,N
1500609415.0,286044414.8,N
1500609415.9,286044414.8,N
1500609435.8,286044415.4,N
1500609455.6,286044412.4,N
1500609475.5,286044412.7,N
1500609495.3,286044413.0,N
1500609515.1,286044415.5,N
1500609535.9,286044413.0,N
1500609555.7,286044414.9,N
1500609575.6,286044414.8,N
1500609595.4,286044415.1,N
